Showing default

BRIO, 43813

Orbit data source: Space-Track

BRIO, 43813 is an American payload satellite in LEO that was launched on Mon, 03 Dec 2018 UTC via an FALCON 9 launch vehicle from the Air Force Western Test Range (AFWTR). Payloads include a variety of satellites, spacecraft, and rockets equipped with specific instruments for various scientific and technological missions. These include communications satellites like Starlink; space stations such as the ISS; scientific satellites like the Hubble; Earth observation satellites from companies like Planet Labs, Umbra, and HawkEye 360; GPS; miniature CubeSats for education and research; and military/defense satellites.

Loading next visibility...
BRIO details
Identifier
43813, 2018-099BH
Orbit
LEO
Last TLE update11 hours ago
Origin
Flag of USMYRI/SPQ (US)
ManufacturerSpaceQuest
MissionOperational Commercial Technology
Bus & MotorCUBESAT 3U, Unknown motor
Mass5 kg wet, 5 kg dry
Launch date (UTC)
2018-12-03 (6 years ago)
Launch vehicle
FALCON 9
Launch site
Air Force Western Test Range (AFWTR)
Object type
Payload
Rocket body
Debris
Shape & HBRBox, 0.3 m
Radar Cross Section0.035 m², Medium (>0.1 m² and < 1m²)

Expand to show TLE details & history

TLE from 11 hours ago
0 BRIO
1 43813U 18099BH  24339.71596655  .00059305  00000-0  19212-2 0  9990
2 43813  97.5458  48.9115 0005632  52.1987 307.9764 15.31786178328618
Epoch: 2024-12-04T17:10Z
Definitive object data (Epoch: 2024-12-04T17:10:59.509Z)
Latitude0.00002°
Longitude77.15641°
Altitude471.213 km
Speed7.632 km/s
True Right ascension03h 15m 38s
True Declination0° 00' 00"
Sunlit
Object was in full shadow at TLE epoch
Visualization TLE readout
Latitude-50.74571°
Longitude86.88976°
Altitude490.852 km
Speed7.618 km/s
Apparent Right ascension09h 43m 00s
Apparent Declination-75° 12' 10"
Sunlit
Object is in daylight
Visualization observer readout
Local Sidereal Time01:53:24
Azimuth161.202° S
Elevation-45.279°
Doppler factor1
Orbital elements
Apogee altitude471.295 km
Perigee altitude463.584 km
Semi-major axis6,845.576 km
Eccentricity0.0005632
Inclination97.5458°
RAAN48.9115°
Arg. of periapsis52.1987°
True anomaly307.9255°
Mean anomaly307.9764°
Eccentric anomaly307.95095°
Mean motion3.83202 °/min
BSTAR0.0019212
Orbital period93.95 mins
Loading maneuver chart data...
Loading historical data...
Loading historical data...
Loading historical data...
Loading historical data...
Loading historical data...
Loading historical data...
Loading historical data...

BRIO Visibility forecast

Observer location: undefined°, undefined

Span
Click to sort rows by Start time (UTC) header in descending order
Start Az.
Max El. time (UTC)
Max El. Az.
Max El.
End time (UTC)
End Az.
5 mins2024-12-05 04:18:04.678Z126.401° SE2024-12-05 04:20:04.678Z83.21° E25.429°2024-12-05 04:23:04.678Z13.769° NNE
4 mins2024-12-05 17:17:04.678Z48.438° ENE2024-12-05 17:19:04.678Z116.641° SE29.46°2024-12-05 17:21:04.678Z160.356° S
|